sat.trackr.live / text

‹ back to catalog

HORYU-4

NORAD 41340 · 2016-012D

PAYLOAD ACTIVE UNKNOWN

§ Identity

Operator
Country
JPN
Launch date
2016-02-17
Launch site
TANSC
Launch vehicle
Mass (kg)
RCS (m²)
0.12

Purposes: tech_demo

External: N2YO · Heavens-Above · Gunter

§ Orbital elements

Epoch: 2026-05-24T14:51:13.996800Z

Period
91.05 min
Inclination
30.9873°
Eccentricity
0.0003366
Mean motion
15.81556741 rev/d
Perigee alt
323.8 km
Apogee alt
328.3 km
Semi-major
6,704.2 km
B*
9.0024e-4
RAAN
250.1302°
Arg perigee
119.9378°
Mean anomaly
240.1614°
Rev number
56,706

§ Raw data

HORYU-41 41340U 16012D   26144.61891200  .00192082  00000+0  90024-3 0  99952 41340  30.9873 250.1302 0003366 119.9378 240.1614 15.81556741567068

JSON: /api/v1/satellites/41340 · /tle

For live sub-satellite position, see the globe view (requires WebGL).

§ Visibility from observer

Set your observer location to see the next 7 days of passes ≥ 10°. The values pass through the URL so the page stays shareable.

No JS? Fill the form by hand. The geolocation button needs JavaScript.

§ Radio — SatNOGS DB

ModeDescriptionDownlinkUplink
AFSK 1k2 AFSK TLM 437.375 MHz
CW CW Beacon 437.375 MHz
CW CW Beacon (current) 437.373 MHz
BPSK S-Band TLM 2.400 GHz

4 transmitters · refreshed weekly from db.satnogs.org